Location: Lake Runnemede Observatory
(43.4843°N, 72.3851°W)
Time: 07:11:42
(UTC-05:00)

Amateur Radio Satellites - All Passes

Search period start: 24 November 2014 06:41
Search period end: 25 November 2014 06:41
Location: Lake Runnemede Observatory, 43.4843°N, 72.3851°W

Satellite Date Start Highest point End Downlink Frequencies (MHz)
Time Altitude Azimuth
BEESAT 3 24 Nov 06:45:34 06:46:20 10° 253° (WSW) 06:47:06 437.485
CUBESAT XI-V 24 Nov 07:01:36 07:04:53 19° 269° (W) 07:08:11 437.345
HO-68 24 Nov 07:14:39 07:18:05 14° 87° (E) 07:21:30 435.675
Cubesat XI-IV 24 Nov 07:29:52 07:34:10 26° 297° (WNW) 07:38:28 437.490
AIST 1 24 Nov 07:34:41 07:38:24 27° 271° (W) 07:42:05
CANX-2 24 Nov 07:41:52 07:44:14 14° 91° (E) 07:46:36 2200.000
ISS 24 Nov 07:43:04 07:43:56 11° 230° (SW) 07:44:47 145.825
COMPASS 1 24 Nov 07:52:17 07:54:05 12° 90° (E) 07:55:52 437.405
DOVE 4 24 Nov 08:10:49 08:12:52 13° 91° (E) 08:14:55 437.250
CUTE-I 24 Nov 08:13:46 08:15:42 12° 304° (NW) 08:17:37 437.470
CUTE 1.7 & AOD 2 24 Nov 08:15:41 08:19:29 30° 96° (E) 08:23:17 437.475
ANTELSAT 24 Nov 08:18:13 08:20:01 12° 61° (ENE) 08:21:48 437.575/2403.000
POPSAT HIP 1 24 Nov 08:27:32 08:28:37 11° 60° (ENE) 08:29:41 437.405
GONETS M04 24 Nov 08:33:26 08:42:15 83° 278° (W) 08:51:10
UKube-1 24 Nov 08:34:00 08:36:15 14° 91° (E) 08:38:28 .
GOMX 1 24 Nov 08:41:52 08:45:46 38° 98° (E) 08:49:43 467.674
Oscar 11 24 Nov 08:45:54 08:49:18 22° 94° (E) 08:52:41 145.826/435.025
CUBEBUG 2 24 Nov 08:49:43 08:51:59 14° 91° (E) 08:54:16 437.445
SEEDS 24 Nov 08:51:04 08:55:19 65° 101° (E) 08:59:34 437.485
UWE-3 24 Nov 08:54:22 08:56:31 14° 91° (E) 08:58:42 435.000/436.395/437.385
POLYITAN 1 24 Nov 08:57:17 09:00:35 22° 66° (ENE) 09:03:53 437.675
HO-68 24 Nov 08:59:39 09:06:53 79° 105° (ESE) 09:14:02 435.675
BRITE-PL 24 Nov 08:59:59 09:04:09 87° 104° (ESE) 09:08:19 437.365/2234.400
QB50P2 24 Nov 09:00:01 09:03:25 24° 67° (ENE) 09:06:49 145.880/145.840
CINEMA 3 24 Nov 09:00:41 09:04:20 29° 96° (E) 09:08:04 145.822/145.860
DX 1 24 Nov 09:06:11 09:10:05 31° 97° (E) 09:13:55 434.975-435.025
DUCHIFAT 1 24 Nov 09:07:11 09:10:47 27° 68° (ENE) 09:14:23 145.980
TIGRISAT 24 Nov 09:11:15 09:15:16 41° 71° (ENE) 09:19:17 435.000
AAUSAT CUBESAT 2 24 Nov 09:12:05 09:16:20 84° 103° (ESE) 09:20:34 437.432
CANX-2 24 Nov 09:16:19 09:20:30 53° 287° (WNW) 09:24:40 2200.000
UNISAT 6 24 Nov 09:23:33 09:27:45 58° 73° (ENE) 09:31:57 437.425
NANOSAT C BR1 24 Nov 09:25:45 09:29:46 43° 71° (ENE) 09:33:48 145.865
COMPASS 1 24 Nov 09:26:01 09:30:12 61° 286° (WNW) 09:34:24 437.405
DELFI C3 24 Nov 09:27:37 09:31:41 52° 100° (E) 09:35:43 145.870
VELOX 1 24 Nov 09:27:45 09:30:42 17° 92° (E) 09:33:37 145.980
HUMSAT D 24 Nov 09:31:52 09:34:45 18° 93° (E) 09:37:39 437.325/437.525
ZACube-1 24 Nov 09:32:46 09:36:31 30° 96° (E) 09:40:18 437.345
50 SAT 24 Nov 09:34:32 09:37:01 16° 92° (E) 09:39:29 437.505
QB50P1 24 Nov 09:35:12 09:39:21 54° 73° (ENE) 09:43:32 145.935-145.965
DOVE 4 24 Nov 09:46:56 09:50:59 53° 287° (WNW) 09:55:06 437.250
CUTE 1.7 & AOD 2 24 Nov 09:51:47 09:55:18 25° 292° (WNW) 09:58:50 437.475
AISAT 24 Nov 09:51:59 09:55:56 31° 97° (E) 09:59:52 437.250
ANTELSAT 24 Nov 09:52:01 09:56:17 69° 258° (WSW) 10:00:33 437.575/2403.000
BUGSAT 1 24 Nov 09:56:14 10:00:30 78° 75° (ENE) 10:04:46 437.445
POPSAT HIP 1 24 Nov 09:59:37 10:03:53 81° 257° (WSW) 10:08:10 437.405
FUNcube-1 24 Nov 10:08:05 10:12:18 75° 102° (ESE) 10:16:34 145.935
UKube-1 24 Nov 10:08:31 10:12:47 57° 288° (WNW) 10:17:01 .
CUBEBUG 1 24 Nov 10:12:58 10:16:07 19° 93° (E) 10:19:13 437.445
SO-50 24 Nov 10:17:46 10:19:11 11° 28° (NNE) 10:20:35 436.795
GOMX 1 24 Nov 10:20:47 10:23:41 19° 295° (WNW) 10:26:36 467.674
Oscar 11 24 Nov 10:21:35 10:25:33 35° 290° (WNW) 10:29:31 145.826/435.025
CUBEBUG 2 24 Nov 10:24:54 10:29:00 53° 287° (WNW) 10:33:11 437.445
SEEDS 24 Nov 10:28:38 10:30:38 13° 298° (WNW) 10:32:39 437.485
UWE-3 24 Nov 10:29:17 10:33:24 54° 287° (WNW) 10:37:35 435.000/436.395/437.385
POLYITAN 1 24 Nov 10:32:26 10:36:21 35° 263° (W) 10:40:16 437.675
GONETS M04 24 Nov 10:34:46 10:40:35 19° 301° (WNW) 10:46:28
QB50P2 24 Nov 10:35:21 10:39:12 32° 263° (W) 10:43:03 145.880/145.840
CINEMA 3 24 Nov 10:38:02 10:41:30 25° 292° (WNW) 10:45:00 145.822/145.860
DX 1 24 Nov 10:42:37 10:46:12 26° 294° (WNW) 10:49:47 434.975-435.025
DUCHIFAT 1 24 Nov 10:42:56 10:46:36 28° 264° (W) 10:50:16 145.980
Oscar 19 24 Nov 10:44:51 10:45:07 10° 55° (NE) 10:45:24 437.125/150
HO-68 24 Nov 10:48:30 10:53:49 23° 305° (NW) 10:59:08 435.675
TIGRISAT 24 Nov 10:49:20 10:52:14 18° 267° (W) 10:55:08 435.000
AAUSAT CUBESAT 2 24 Nov 10:50:41 10:51:22 10° 300° (WNW) 10:52:02 437.432
ESTCUBE 1 24 Nov 10:54:40 10:59:09 55° 100° (E) 11:03:35 437.505/2401.250
UNISAT 6 24 Nov 11:02:59 11:04:56 13° 270° (W) 11:06:54 437.425
NANOSAT C BR1 24 Nov 11:02:59 11:05:52 18° 268° (W) 11:08:45 145.865
VELOX 1 24 Nov 11:03:18 11:07:33 47° 289° (WNW) 11:11:46 145.980
DELFI C3 24 Nov 11:04:13 11:06:34 15° 297° (WNW) 11:08:55 145.870
HUMSAT D 24 Nov 11:06:51 11:10:44 40° 289° (WNW) 11:14:39 437.325/437.525
50 SAT 24 Nov 11:08:42 11:12:34 44° 288° (WNW) 11:16:26 437.505
ZACube-1 24 Nov 11:09:22 11:12:48 25° 292° (WNW) 11:16:16 437.345
QB50P1 24 Nov 11:13:22 11:15:36 14° 269° (W) 11:17:50 145.935-145.965
AISAT 24 Nov 11:28:47 11:32:28 26° 294° (WNW) 11:36:08 437.250
ITAMSAT 1 24 Nov 11:31:58 11:33:48 12° 56° (NE) 11:35:38 435.822/435.867
TISAT 1 24 Nov 11:40:23 11:44:24 42° 99° (E) 11:48:23 437.305
SPROUT 24 Nov 11:44:08 11:48:13 41° 98° (E) 11:52:15 437.525
FUNcube-1 24 Nov 11:46:44 11:48:06 11° 299° (WNW) 11:49:28 145.935
CUBEBUG 1 24 Nov 11:48:34 11:52:41 41° 290° (WNW) 11:56:45 437.445
AUBIESAT-1 24 Nov 11:53:27 11:54:55 11° 92° (E) 11:56:22 437.475
Gurwin Techsat 1B 24 Nov 11:53:40 11:54:53 11° 55° (NE) 11:56:07 435.225
SO-50 24 Nov 11:56:18 12:00:58 45° 49° (NE) 12:05:40 436.795
M-CUBED/EXP-1 PRIME 24 Nov 11:56:27 11:58:54 14° 94° (E) 12:01:20 437.505
CUSAT 1 24 Nov 12:17:42 12:19:38 18° 94° (E) 12:21:30 437.405
BEESAT 24 Nov 12:17:48 12:20:57 17° 91° (E) 12:24:04 436.000
Oscar 19 24 Nov 12:18:27 12:23:31 70° 73° (ENE) 12:28:38 437.125/150
ESTCUBE 1 24 Nov 12:32:43 12:35:35 17° 298° (WNW) 12:38:28 437.505/2401.250
DANDE 24 Nov 12:34:48 12:37:14 25° 96° (E) 12:39:29 436.750
YUBILEINY 24 Nov 12:52:39 13:01:03 49° 74° (ENE) 13:09:21 435.215
ITAMSAT 1 24 Nov 13:07:13 13:12:26 79° 74° (ENE) 13:17:40 435.822/435.867
ITUPSAT 1 24 Nov 13:11:09 13:15:55 56° 101° (E) 13:20:37 437.325
KKS-1 24 Nov 13:15:11 13:17:16 13° 90° (E) 13:19:20 437.445
TISAT 1 24 Nov 13:17:02 13:19:57 19° 296° (WNW) 13:22:51 437.305
SPROUT 24 Nov 13:20:58 13:24:01 19° 295° (WNW) 13:27:04 437.525
SWISSCUBE 24 Nov 13:22:49 13:27:39 81° 104° (ESE) 13:32:26 437.505
AUBIESAT-1 24 Nov 13:25:34 13:30:31 90° 109° (ESE) 13:35:22 437.475
Gurwin Techsat 1B 24 Nov 13:28:37 13:33:54 71° 73° (ENE) 13:39:12 435.225
HORYU 2 24 Nov 13:29:29 13:33:21 31° 68° (ENE) 13:37:15 437.375
M-CUBED/EXP-1 PRIME 24 Nov 13:29:29 13:34:26 78° 290° (WNW) 13:39:19 437.505
AO-7 24 Nov 13:35:29 13:42:22 31° 55° (NE) 13:49:17 29.400- 29.500
SO-50 24 Nov 13:37:16 13:41:20 27° 247° (WSW) 13:45:23 436.795
BEESAT 24 Nov 13:54:26 13:59:08 54° 288° (WNW) 14:03:47 436.000
Oscar 19 24 Nov 14:00:35 14:03:23 15° 270° (W) 14:06:11 437.125/150
STARS 24 Nov 14:13:14 14:17:18 36° 98° (E) 14:21:20 437.465
MaSat-1 24 Nov 14:43:21 14:45:52 24° 112° (ESE) 14:48:13 437.345
YUBILEINY 24 Nov 14:49:49 14:57:38 39° 275° (W) 15:05:24 435.215
KKS-1 24 Nov 14:49:56 14:54:20 62° 287° (WNW) 14:58:42 437.445
ITAMSAT 1 24 Nov 14:50:04 14:52:31 13° 271° (W) 14:54:59 435.822/435.867
ITUPSAT 1 24 Nov 14:50:07 14:53:22 18° 298° (WNW) 14:56:36 437.325
JAS-2 24 Nov 14:54:57 15:01:20 30° 60° (ENE) 15:07:50 435.910
O/OREOS (USA 219) 24 Nov 14:56:12 15:00:08 29° 58° (ENE) 15:04:04 437.305
AUBIESAT-1 24 Nov 15:02:16 15:04:47 14° 306° (NW) 15:07:18 437.475
SWISSCUBE 24 Nov 15:02:36 15:04:51 13° 301° (WNW) 15:07:06 437.505
HORYU 2 24 Nov 15:06:18 15:10:01 26° 265° (W) 15:13:47 437.375
M-CUBED/EXP-1 PRIME 24 Nov 15:06:42 15:08:40 12° 307° (NW) 15:10:38 437.505
PHONESAT 2.4 24 Nov 15:11:13 15:14:09 22° 155° (SSE) 15:17:05 2401.200-2431.200
Gurwin Techsat 1B 24 Nov 15:11:20 15:14:23 15° 270° (W) 15:17:28 435.225
RS-15 24 Nov 15:17:17 15:27:17 43° 109° (ESE) 15:37:13 29.354- 29.394
AO-7 24 Nov 15:26:17 15:34:32 70° 255° (WSW) 15:42:52 29.400- 29.500
VERMONT LUNAR 24 Nov 15:29:00 15:32:16 32° 162° (SSE) 15:35:33 437.305
Cubesat XI-IV 24 Nov 15:36:09 15:38:31 13° 56° (ENE) 15:40:52 437.490
MOZHAYETS 4 24 Nov 15:43:11 15:45:52 15° 90° (E) 15:48:31
STARS 24 Nov 15:50:09 15:53:36 23° 294° (WNW) 15:57:01 437.465
CUTE-I 24 Nov 16:15:31 16:19:57 27° 64° (ENE) 16:24:24 437.470
MaSat-1 24 Nov 16:18:43 16:20:27 15° 305° (NW) 16:22:07 437.345
O/OREOS (USA 219) 24 Nov 16:35:37 16:39:29 29° 256° (WSW) 16:43:20 437.305
JAS-2 24 Nov 16:38:09 16:45:42 68° 259° (W) 16:53:35 435.910
PHONESAT 2.4 24 Nov 16:48:56 16:52:32 49° 172° (S) 16:56:08 2401.200-2431.200
GONETS M04 24 Nov 16:49:31 16:51:47 11° 50° (NE) 16:54:02
VERMONT LUNAR 24 Nov 17:06:55 17:10:28 54° 179° (S) 17:14:02 437.305
Cubesat XI-IV 24 Nov 17:12:24 17:17:46 84° 74° (ENE) 17:23:10 437.490
MOZHAYETS 4 24 Nov 17:18:53 17:23:28 59° 287° (WNW) 17:28:03
CUBESAT XI-V 24 Nov 17:20:55 17:22:17 11° 88° (E) 17:23:39 437.345
AO-7 24 Nov 17:25:25 17:28:47 13° 274° (W) 17:32:12 29.400- 29.500
RS-15 24 Nov 17:28:26 17:39:12 60° 313° (NW) 17:50:06 29.354- 29.394
PRISM 24 Nov 17:30:47 17:34:41 34° 98° (E) 17:38:33 437.425
HO-68 24 Nov 17:45:58 17:49:36 15° 49° (NE) 17:53:13 435.675
CUTE-I 24 Nov 17:54:43 17:59:48 43° 261° (W) 18:04:54 437.470
PCSat 24 Nov 18:15:07 18:17:01 12° 102° (ESE) 18:18:55 145.827
PHONESAT 2.4 24 Nov 18:27:31 18:31:07 48° 189° (S) 18:34:42 2401.200-2431.200
JAS-2 24 Nov 18:28:48 18:32:04 13° 278° (W) 18:35:24 435.910
AIST 1 24 Nov 18:29:19 18:31:53 15° 85° (E) 18:34:28
BRITE-PL 24 Nov 18:35:59 18:38:33 14° 63° (ENE) 18:41:02 437.365/2234.400
CANX-2 24 Nov 18:37:16 18:39:14 13° 62° (ENE) 18:41:13 2200.000
GONETS M04 24 Nov 18:42:27 18:51:06 54° 75° (ENE) 18:59:37
VERMONT LUNAR 24 Nov 18:45:20 18:48:42 36° 196° (SSW) 18:52:04 437.305
COMPASS 1 24 Nov 18:46:39 18:47:48 11° 61° (ENE) 18:48:58 437.405
STRAND 1 24 Nov 18:47:51 18:52:59 77° 103° (ESE) 18:58:05 437.568
CUBESAT XI-V 24 Nov 18:55:37 19:00:19 78° 285° (WNW) 19:04:57 437.345
Cubesat XI-IV 24 Nov 18:56:07 18:58:31 13° 272° (W) 19:00:55 437.490
BEESAT 3 24 Nov 19:03:35 19:04:55 11° 108° (ESE) 19:06:16 437.485
PRISM 24 Nov 19:06:44 19:10:03 22° 294° (WNW) 19:13:20 437.425
CUTE 1.7 & AOD 2 24 Nov 19:10:21 19:13:51 26° 68° (ENE) 19:17:22 437.475
BEESAT 2 24 Nov 19:16:40 19:18:58 15° 110° (ESE) 19:21:17 435.950
DOVE 4 24 Nov 19:17:44 19:20:52 19° 65° (ENE) 19:23:55 437.250
HO-68 24 Nov 19:28:54 19:35:59 67° 69° (ENE) 19:43:07 435.675
UKube-1 24 Nov 19:30:42 19:33:16 16° 62° (ENE) 19:35:50 .
Oscar 11 24 Nov 19:42:23 19:45:36 21° 65° (ENE) 19:48:49 145.826/435.025
AIST 2 24 Nov 19:44:13 19:46:33 15° 109° (ESE) 19:48:54 435.215
SEEDS 24 Nov 19:44:41 19:48:45 52° 73° (ENE) 19:52:51 437.485
RS-15 24 Nov 19:45:37 19:54:28 27° 343° (NNW) 20:03:29 29.354- 29.394
CUBEBUG 2 24 Nov 19:50:06 19:52:30 15° 63° (ENE) 19:54:53 437.445
GOMX 1 24 Nov 19:50:59 19:55:39 52° 73° (ENE) 20:00:02 467.674
UWE-3 24 Nov 19:53:45 19:55:57 14° 63° (ENE) 19:58:09 435.000/436.395/437.385
PCSat 24 Nov 19:54:09 19:59:33 86° 119° (ESE) 20:05:01 145.827
DX 1 24 Nov 20:03:06 20:07:01 33° 68° (ENE) 20:10:57 434.975-435.025
CINEMA 3 24 Nov 20:04:02 20:07:56 32° 70° (ENE) 20:11:43 145.822/145.860
AAUSAT CUBESAT 2 24 Nov 20:04:34 20:08:41 66° 74° (ENE) 20:12:50 437.432
AIST 1 24 Nov 20:04:50 20:09:06 49° 282° (WNW) 20:13:24
PHONESAT 2.4 24 Nov 20:06:38 20:09:29 21° 205° (SSW) 20:12:20 2401.200-2431.200
CANX-2 24 Nov 20:10:30 20:14:40 63° 259° (W) 20:18:53 2200.000
BRITE-PL 24 Nov 20:11:32 20:16:37 73° 258° (WSW) 20:21:18 437.365/2234.400
DELFI C3 24 Nov 20:17:45 20:21:32 39° 71° (ENE) 20:25:21 145.870
COMPASS 1 24 Nov 20:18:46 20:22:56 76° 258° (WSW) 20:27:08 437.405
VERMONT LUNAR 24 Nov 20:24:57 20:26:36 13° 211° (SSW) 20:28:13 437.305
50 SAT 24 Nov 20:25:53 20:27:45 13° 63° (ENE) 20:29:38 437.505
HUMSAT D 24 Nov 20:26:16 20:28:49 16° 64° (ENE) 20:31:23 437.325/437.525
VELOX 1 24 Nov 20:27:07 20:30:21 20° 64° (ENE) 20:33:34 145.980
STRAND 1 24 Nov 20:28:40 20:31:32 15° 301° (WNW) 20:34:23 437.568
ZACube-1 24 Nov 20:30:35 20:34:12 28° 69° (ENE) 20:37:47 437.345
BEESAT 3 24 Nov 20:38:26 20:42:32 74° 305° (NW) 20:46:43 437.485
GONETS M04 24 Nov 20:39:50 20:47:32 36° 276° (W) 20:55:12
CUTE 1.7 & AOD 2 24 Nov 20:46:03 20:49:42 28° 265° (W) 20:53:23 437.475
AISAT 24 Nov 20:51:27 20:55:30 34° 69° (ENE) 20:59:33 437.250
BEESAT 2 24 Nov 20:52:42 20:56:46 59° 307° (NW) 21:00:56 435.950
DOVE 4 24 Nov 20:53:53 20:58:23 47° 261° (W) 21:02:38 437.250
UKube-1 24 Nov 21:04:42 21:08:59 57° 259° (W) 21:13:18 .
FUNcube-1 24 Nov 21:05:24 21:09:35 68° 75° (ENE) 21:13:44 145.935
CUBEBUG 1 24 Nov 21:10:47 21:14:03 20° 65° (ENE) 21:17:19 437.445
UNISAT 6 24 Nov 21:16:41 21:18:06 11° 89° (E) 21:19:32 437.425
Oscar 11 24 Nov 21:17:31 21:21:31 38° 262° (W) 21:25:34 145.826/435.025
HO-68 24 Nov 21:18:34 21:24:13 25° 267° (W) 21:29:55 435.675
AIST 2 24 Nov 21:20:29 21:24:41 62° 307° (NW) 21:28:57 435.215
SEEDS 24 Nov 21:22:43 21:24:55 14° 270° (W) 21:27:08 437.485
CUBEBUG 2 24 Nov 21:24:38 21:28:49 54° 260° (W) 21:32:57 437.445
UWE-3 24 Nov 21:27:54 21:32:05 57° 259° (W) 21:36:13 435.000/436.395/437.385
GOMX 1 24 Nov 21:30:56 21:34:01 17° 268° (W) 21:36:59 467.674
DX 1 24 Nov 21:39:42 21:43:18 24° 265° (W) 21:46:54 434.975-435.025
PCSat 24 Nov 21:39:52 21:43:42 19° 320° (NW) 21:47:33 145.827
CINEMA 3 24 Nov 21:41:37 21:45:11 24° 265° (W) 21:48:40 145.822/145.860
ANTELSAT 24 Nov 21:43:30 21:47:00 22° 94° (E) 21:50:33 437.575/2403.000
AAUSAT CUBESAT 2 24 Nov 21:43:42 21:44:49 11° 271° (W) 21:45:57 437.432
POPSAT HIP 1 24 Nov 21:45:32 21:48:01 15° 91° (E) 21:50:28 437.405
DELFI C3 24 Nov 21:54:14 21:57:01 18° 268° (W) 21:59:49 145.870
ESTCUBE 1 24 Nov 21:55:31 21:59:59 59° 73° (ENE) 22:04:29 437.505/2401.250
50 SAT 24 Nov 21:58:38 22:02:37 58° 259° (W) 22:06:36 437.505
HUMSAT D 24 Nov 22:00:18 22:04:17 47° 261° (W) 22:08:17 437.325/437.525
VELOX 1 24 Nov 22:02:20 22:06:38 44° 261° (W) 22:10:56 145.980
RS-15 24 Nov 22:02:32 22:11:40 28° 19° (NNE) 22:21:01 29.354- 29.394
ZACube-1 24 Nov 22:07:03 22:10:34 25° 265° (W) 22:14:04 437.345
POLYITAN 1 24 Nov 22:17:07 22:20:59 33° 97° (E) 22:24:49 437.675
QB50P2 24 Nov 22:19:41 22:23:36 36° 98° (E) 22:27:30 145.880/145.840
BEESAT 3 24 Nov 22:19:42 22:21:32 13° 325° (NW) 22:23:23 437.485
DUCHIFAT 1 24 Nov 22:26:37 22:30:38 41° 99° (E) 22:34:37 145.980
AISAT 24 Nov 22:28:32 22:32:12 24° 265° (W) 22:35:52 437.250
TISAT 1 24 Nov 22:34:17 22:38:14 38° 70° (ENE) 22:42:12 437.305
BEESAT 2 24 Nov 22:34:51 22:35:59 11° 327° (NNW) 22:37:06 435.950
TIGRISAT 24 Nov 22:38:04 22:42:29 82° 103° (ESE) 22:46:59 435.000
SPROUT 24 Nov 22:39:40 22:43:39 38° 70° (ENE) 22:47:39 437.525
AUBIESAT-1 24 Nov 22:43:20 22:46:00 17° 56° (NE) 22:48:47 437.475
FUNcube-1 24 Nov 22:45:27 22:46:23 11° 271° (W) 22:47:20 145.935
NANOSAT C BR1 24 Nov 22:45:40 22:49:53 70° 102° (ESE) 22:54:05 145.865
CUBEBUG 1 24 Nov 22:45:55 22:50:09 42° 261° (W) 22:54:24 437.445
M-CUBED/EXP-1 PRIME 24 Nov 22:47:11 22:50:09 19° 57° (ENE) 22:53:18 437.505
ISS 24 Nov 22:47:54 22:50:02 16° 133° (SE) 22:52:12 145.825
UNISAT 6 24 Nov 22:50:57 22:55:22 72° 285° (WNW) 22:59:52 437.425
CUSAT 1 24 Nov 22:52:08 22:56:02 29° 76° (ENE) 23:01:01 437.405
QB50P1 24 Nov 22:55:22 22:59:37 89° 103° (ESE) 23:03:50 145.935-145.965
SWISSCUBE 24 Nov 22:55:51 22:58:13 14° 59° (ENE) 23:00:35 437.505
AIST 2 24 Nov 23:02:40 23:04:12 12° 327° (NNW) 23:05:46 435.215
DANDE 24 Nov 23:11:43 23:15:41 36° 77° (ENE) 23:20:52 436.750
BUGSAT 1 24 Nov 23:13:26 23:17:31 69° 286° (WNW) 23:21:32 437.445
ANTELSAT 24 Nov 23:19:50 23:23:54 37° 290° (WNW) 23:28:02 437.575/2403.000
POPSAT HIP 1 24 Nov 23:20:08 23:24:12 49° 288° (WNW) 23:28:16 437.405
BEESAT 24 Nov 23:25:33 23:29:19 24° 64° (ENE) 23:33:07 436.000
ESTCUBE 1 24 Nov 23:34:45 23:37:15 14° 270° (W) 23:39:45 437.505/2401.250
POLYITAN 1 24 Nov 23:53:27 23:56:46 23° 294° (WNW) 00:00:04 437.675
QB50P2 24 Nov 23:56:07 23:59:20 21° 294° (WNW) 00:02:32 145.880/145.840
DUCHIFAT 1 25 Nov 00:03:17 00:06:13 19° 295° (WNW) 00:09:08 145.980
TISAT 1 25 Nov 00:11:04 00:14:12 20° 267° (W) 00:17:22 437.305
KKS-1 25 Nov 00:14:57 00:17:32 15° 62° (ENE) 00:20:07 437.445
RS-15 25 Nov 00:15:39 00:26:46 64° 49° (NE) 00:38:20 29.354- 29.394
AUBIESAT-1 25 Nov 00:16:32 00:20:29 56° 255° (WSW) 00:24:50 437.475
SPROUT 25 Nov 00:16:38 00:19:53 20° 267° (W) 00:23:07 437.525
TIGRISAT 25 Nov 00:17:14 00:18:38 11° 300° (WNW) 00:20:02 435.000
ITUPSAT 1 25 Nov 00:19:08 00:23:56 74° 74° (ENE) 00:28:46 437.325
MaSat-1 25 Nov 00:20:35 00:22:53 59° 62° (ENE) 00:25:13 437.345
M-CUBED/EXP-1 PRIME 25 Nov 00:20:59 00:24:50 45° 257° (WSW) 00:29:04 437.505
ISS 25 Nov 00:23:05 00:26:21 68° 330° (NNW) 00:29:38 145.825
NANOSAT C BR1 25 Nov 00:23:33 00:25:13 12° 299° (WNW) 00:26:53 145.865
Oscar 19 25 Nov 00:29:31 00:33:33 23° 93° (E) 00:37:34 437.125/150
SWISSCUBE 25 Nov 00:30:38 00:35:26 79° 257° (WSW) 00:40:17 437.505
CUSAT 1 25 Nov 00:35:05 00:39:07 31° 264° (W) 00:44:17 437.405
DANDE 25 Nov 00:55:34 00:59:07 24° 265° (W) 01:03:32 436.750
BEESAT 25 Nov 01:02:24 01:06:56 41° 262° (W) 01:11:29 436.000
STARS 25 Nov 01:11:42 01:15:46 38° 70° (ENE) 01:19:50 437.465
ITAMSAT 1 25 Nov 01:19:34 01:23:50 25° 94° (E) 01:28:04 435.822/435.867
Gurwin Techsat 1B 25 Nov 01:44:14 01:48:37 26° 94° (E) 01:52:59 435.225
KKS-1 25 Nov 01:49:19 01:53:43 59° 259° (W) 01:58:08 437.445
YUBILEINY 25 Nov 01:54:41 02:03:08 54° 90° (E) 02:11:34 435.215
ITUPSAT 1 25 Nov 02:00:17 02:02:22 13° 271° (W) 02:04:27 437.325
ISS 25 Nov 02:00:46 02:03:26 22° 349° (N) 02:06:06 145.825
Oscar 19 25 Nov 02:08:10 02:13:06 47° 290° (WNW) 02:18:02 437.125/150
RS-15 25 Nov 02:28:31 02:38:41 42° 251° (WSW) 02:49:16 29.354- 29.394
MOZHAYETS 4 25 Nov 02:46:45 02:49:43 17° 63° (ENE) 02:52:42
STARS 25 Nov 02:49:00 02:52:22 21° 266° (W) 02:55:45 437.465
HORYU 2 25 Nov 02:55:53 03:00:17 53° 100° (E) 03:04:41 437.375
PCSat 25 Nov 02:58:36 03:02:15 18° 39° (NE) 03:05:52 145.827
ITAMSAT 1 25 Nov 02:58:36 03:03:28 42° 291° (WNW) 03:08:17 435.822/435.867
BEESAT 3 25 Nov 03:20:18 03:22:52 16° 38° (NE) 03:25:24 437.485
Gurwin Techsat 1B 25 Nov 03:23:44 03:28:44 43° 291° (WNW) 03:33:43 435.225
AO-7 25 Nov 03:26:41 03:34:23 39° 98° (E) 03:42:01 29.400- 29.500
BEESAT 2 25 Nov 03:34:30 03:37:28 18° 40° (NE) 03:40:25 435.950
ISS 25 Nov 03:38:15 03:40:52 21° 10° (N) 03:43:30 145.825
JAS-2 25 Nov 03:49:06 03:53:57 19° 86° (E) 03:58:25 435.910
SO-50 25 Nov 03:52:15 03:56:46 80° 123° (ESE) 04:01:27 436.795
YUBILEINY 25 Nov 03:52:19 04:00:14 36° 291° (WNW) 04:08:11 435.215
AIST 2 25 Nov 04:03:42 04:06:47 19° 40° (NE) 04:09:51 435.215
MOZHAYETS 4 25 Nov 04:22:00 04:26:30 55° 260° (W) 04:31:04
PRISM 25 Nov 04:22:59 04:26:42 31° 68° (ENE) 04:30:27 437.425
CUBESAT XI-V 25 Nov 04:25:23 04:27:54 15° 61° (ENE) 04:30:26 437.345
STRAND 1 25 Nov 04:28:05 04:31:25 18° 60° (ENE) 04:34:45 437.568
HORYU 2 25 Nov 04:33:39 04:36:34 17° 297° (WNW) 04:39:28 437.375
PCSat 25 Nov 04:41:00 04:46:28 86° 60° (ENE) 04:51:54 145.827
BEESAT 3 25 Nov 04:57:27 05:01:40 82° 237° (WSW) 05:05:49 437.485
O/OREOS (USA 219) 25 Nov 05:09:59 05:13:43 26° 103° (ESE) 05:17:27 437.305
BEESAT 2 25 Nov 05:12:00 05:16:11 65° 239° (WSW) 05:20:19 435.950
ISS 25 Nov 05:14:43 05:18:00 60° 29° (NNE) 05:21:16 145.825
AO-7 25 Nov 05:19:20 05:27:20 52° 297° (WNW) 05:35:19 29.400- 29.500
Cubesat XI-IV 25 Nov 05:29:02 05:33:42 30° 95° (E) 05:38:19 437.490
JAS-2 25 Nov 05:32:39 05:39:55 77° 287° (WNW) 05:46:16 435.910
SO-50 25 Nov 05:34:44 05:37:55 18° 323° (NW) 05:41:11 436.795
AIST 2 25 Nov 05:41:34 05:45:51 65° 239° (WSW) 05:50:04 435.215
GONETS M04 25 Nov 05:57:27 05:58:18 10° 70° (ENE) 05:59:09
PRISM 25 Nov 05:58:51 06:02:16 24° 265° (W) 06:05:44 437.425
CUBESAT XI-V 25 Nov 06:00:03 06:04:46 71° 258° (WSW) 06:09:30 437.345
STRAND 1 25 Nov 06:04:57 06:10:04 67° 258° (WSW) 06:15:13 437.568
CUTE-I 25 Nov 06:10:20 06:15:40 70° 103° (ESE) 06:20:57 437.470
AIST 1 25 Nov 06:11:00 06:15:13 44° 77° (ENE) 06:19:23
PCSat 25 Nov 06:26:33 06:29:06 14° 257° (WSW) 06:31:38 145.827
